Flag for U.S.A. Weather past 2 weeks in Inglewood, California, U.S.A.

Now
66 °F

Clear.


Feels Like: 66 °F
Forecast: 63 / 88 °F
Wind: No wind

Location: Hawthorne Municipal Airport

Current Time: Oct 2, 2014 at 2:21:39 AM

Latest Report: Oct 2, 2014 at 1:53 AM


Visibility: 10 mi

Pressure: 29.88 "Hg

Humidity: 87%

Dew point: 62 °F

Location of InglewoodLocation

Historic Weather in Inglewood — Graph

°F

Inglewood temperature yesterday

Maximum temperature yesterday: 78 °F (at 1:53 PM)
Minimum temperature yesterday: 66 °F (at 1:53 AM)
Average temperature yesterday: 70 °F

Past Weeks' High & Low Weather Summary

 TemperatureHumidityPressure
High89 °F (Sep 17, 9:53 AM)97% (Sep 24, 4:53 AM)30.01 "Hg (Sep 24, 4:53 AM)
Low63 °F (Sep 29, 5:53 AM)30% (Sep 17, 3:53 PM)29.69 "Hg (Sep 17, 5:53 PM)
Average72 °F71%29.87 "Hg
* Reported Sep 17 12:53 AM — Oct 2 12:53 AM, Inglewood, Weather by CustomWeather, © 2014

Note: Actual official high and low records may vary slightly from our data, if they occured in-between our weather recording intervals... More about our weather records

Advertising

Inglewood weather history for previous 24 hours

 ConditionsComfort  
Time TempWeatherWind HumidityBarometerVisibility
12:53 AM
Oct 2
67 °FClear.No wind87%29.87 "Hg10 mi
11:53 PM
Oct 1
68 °FClear.No wind84%29.88 "Hg10 mi
10:53 PM69 °FPassing clouds.No wind81%29.87 "Hg10 mi
9:53 PM68 °FClear.No wind87%29.87 "Hg10 mi
8:53 PM69 °FClear.5 mph81%29.85 "Hg10 mi
7:53 PM69 °FClear.5 mph81%29.82 "Hg10 mi
6:53 PM70 °FSunny.6 mph79%29.80 "Hg10 mi
5:53 PM71 °FSunny.9 mph76%29.79 "Hg10 mi
4:53 PM73 °FSunny.8 mph71%29.79 "Hg10 mi
3:53 PM75 °FSunny.9 mph64%29.78 "Hg10 mi
2:53 PM76 °FSunny.10 mph62%29.77 "Hg10 mi
1:53 PM78 °FSunny.12 mph58%29.78 "Hg10 mi
12:53 PM77 °FSunny.6 mph60%29.79 "Hg10 mi
11:53 AM77 °FSunny.5 mph58%29.81 "Hg10 mi
10:53 AM75 °FSunny.3 mph62%29.82 "Hg10 mi
9:53 AM72 °FPassing clouds.5 mph71%29.83 "Hg10 mi
8:53 AM70 °FPartly sunny.5 mph76%29.83 "Hg10 mi
7:53 AM68 °FOvercast.8 mph82%29.81 "Hg10 mi
6:53 AM67 °FPassing clouds.5 mph87%29.80 "Hg9 mi
5:53 AM66 °FPassing clouds.6 mph90%29.78 "Hg10 mi
5:04 AM66 °FPassing clouds.6 mph87%29.78 "Hg10 mi
4:53 AM66 °FPassing clouds.No wind87%29.77 "Hg10 mi
3:53 AM66 °FClear.No wind84%29.76 "Hg10 mi
2:53 AM66 °FClear.No wind81%29.76 "Hg10 mi
Weather by CustomWeather, © 2014

See weather overviewHow to use our weather pages